Wind_Speed
28 27 27 26 25 24 24 23 23 22 22 22 22 21 21 21 21 21 22 22 23 23 24 24 25 25 26 27 27 28 29 30 31 32 32 33 34 34 35 35 35 36 37
30 29 28 27 26 26 25 25 24 24 24 23 23 23 23 23 24 24 24 24 25 25 25 26 26 27 28 28 29 30 31 32 33 34 34 35 35 36 36 36 37 38 38
32 31 30 29 28 27 27 26 26 26 26 26 26 26 26 26 26 26 27 27 27 27 27 28 28 29 30 30 31 32 33 34 35 35 36 36 36 36 37 38 38 39 39
34 33 32 31 31 30 30 29 28 28 28 28 28 28 28 28 28 29 29 29 29 29 29 30 30 31 31 32 33 34 35 36 36 36 37 37 37 38 39 39 40 40 40
35 35 34 33 33 32 32 31 31 31 30 30 30 30 30 31 31 31 31 31 31 31 31 32 32 32 33 34 35 36 36 37 37 37 38 38 39 40 40 41 41 42 41
38 37 36 35 35 34 34 34 34 33 33 33 33 32 32 32 32 32 32 32 32 33 34 34 34 34 35 36 36 37 38 38 39 39 39 40 40 41 42 42 43 42 42
40 39 38 37 36 36 36 36 36 35 36 36 35 35 34 34 34 34 34 34 36 36 36 36 36 36 37 38 38 39 39 39 39 40 40 41 42 42 43 43 44 43 42
42 42 40 39 39 38 38 38 37 37 37 38 38 38 37 36 36 36 36 37 38 38 38 37 38 38 39 39 39 40 40 41 41 42 42 43 43 44 45 45 44 44 43
44 44 42 42 41 40 40 40 40 40 40 40 39 38 38 37 37 37 37 38 38 38 39 38 39 40 41 40 40 41 42 43 44 44 45 45 45 45 45 45 45 44 43
46 46 44 44 43 42 42 42 42 42 42 41 40 39 39 40 39 38 38 39 39 40 40 41 42 42 41 42 43 44 45 46 46 46 46 46 46 46 46 45 45 44 42
47 47 46 45 46 45 45 45 45 44 43 42 41 41 40 40 40 40 40 40 41 41 41 42 42 42 43 44 45 46 47 47 47 46 46 46 47 47 46 45 44 43 42
50 49 48 48 48 48 48 47 46 44 44 43 43 42 41 41 40 41 41 41 41 41 41 42 43 43 44 45 46 47 47 47 46 46 47 47 47 47 46 45 44 42 41
51 50 50 50 50 50 48 48 47 46 45 45 44 43 42 42 42 42 42 42 42 41 41 42 43 44 45 47 47 47 47 47 47 47 47 47 47 46 45 44 43 42 40
51 52 53 52 51 50 49 49 47 46 44 43 43 43 42 43 43 42 42 42 42 41 42 43 44 46 47 48 48 48 47 47 47 47 47 46 46 45 44 43 42 41 39
51 51 51 50 50 50 51 50 48 45 44 44 43 43 44 44 43 43 43 43 42 42 43 45 46 47 48 48 48 47 47 47 47 47 47 46 45 44 43 42 41 40 38
49 51 49 48 48 48 49 49 47 46 45 44 44 45 44 44 44 44 44 44 44 45 45 46 47 48 48 48 47 47 47 47 47 47 46 45 44 42 42 41 40 39 37
46 47 47 47 47 47 46 46 46 46 46 45 44 44 44 44 43 43 44 44 45 46 47 47 47 47 47 47 47 47 47 47 47 46 45 44 43 42 41 40 38 38 37
45 46 47 46 48 48 47 45 45 44 45 45 44 44 44 44 44 44 45 45 46 46 47 47 47 48 48 48 48 47 47 46 46 45 44 43 43 41 40 39 38 37 36
44 45 45 45 46 46 46 46 45 45 44 44 44 44 45 46 45 46 46 46 46 47 47 47 48 48 48 47 47 47 46 46 45 44 43 42 41 40 40 38 37 36 36
45 45 45 45 46 45 45 45 46 46 45 45 46 46 46 46 46 46 46 46 47 47 46 46 46 46 46 46 46 45 45 45 44 43 41 41 40 40 39 37 36 35 34
44 44 45 45 45 45 44 45 45 45 46 45 45 46 45 45 45 46 45 46 46 46 46 46 45 45 45 45 44 44 43 43 42 41 40 39 39 38 37 36 35 34 33
45 45 44 45 45 44 44 45 45 45 46 45 45 45 45 45 45 45 46 45 45 45 45 45 44 44 44 44 43 42 42 41 40 40 39 39 38 37 36 35 34 33 33
45 45 45 45 45 44 44 45 45 45 45 46 45 45 45 45 45 45 45 44 44 44 44 43 42 42 42 41 41 41 40 39 39 39 38 37 37 36 35 34 33 33 33
43 44 45 44 44 44 44 44 44 44 44 44 44 44 44 44 43 43 43 43 43 42 42 41 41 41 40 40 39 39 39 39 38 38 37 36 36 35 34 34 33 33 32
41 42 42 42 42 42 42 42 42 42 43 43 42 43 42 42 42 42 42 42 42 41 40 40 40 40 39 39 38 38 38 38 37 37 37 36 35 34 34 33 33 33 32
40 40 39 40 40 40 40 41 41 41 42 42 42 42 41 40 40 40 40 41 41 40 40 40 40 39 38 38 38 37 37 37 36 36 36 35 34 34 33 33 33 32 32
Wind_Direction
233 235 236 237 238 240 241 242 244 247 250 253 256 258 261 265 268 271 275 278 281 284 286 288 291 294 296 298 300 302 304 306 306 307 307 307 308 309 309 309 310 312 313
234 235 237 238 239 242 243 244 246 249 251 255 257 259 262 265 268 272 275 278 280 283 285 287 290 293 294 296 298 301 303 304 305 306 306 306 307 308 308 309 310 310 311
234 236 238 239 240 242 244 246 248 251 253 256 258 261 263 266 269 272 275 278 280 282 284 286 288 291 292 295 297 300 302 304 305 305 305 305 306 307 307 307 308 308 308
234 236 238 240 241 243 245 247 249 252 254 257 259 262 264 266 269 272 275 277 279 281 283 286 288 289 291 294 297 300 302 304 304 304 304 304 304 304 305 306 306 306 306
235 236 238 240 243 245 246 248 250 253 255 258 260 262 264 267 269 272 274 276 278 280 283 285 286 288 291 294 297 299 301 302 303 303 303 302 303 303 304 304 304 304 304
236 237 239 242 244 246 248 250 252 254 256 259 260 262 264 267 270 271 273 275 277 279 282 284 286 288 291 294 296 298 299 301 302 302 302 302 302 302 302 303 303 303 302
237 239 241 244 246 248 250 252 254 256 257 259 261 263 265 267 269 271 273 275 277 279 281 283 285 288 291 293 295 297 298 300 301 301 302 301 301 301 301 301 302 301 301
239 241 243 244 247 249 252 253 255 257 259 260 262 264 266 268 269 272 273 275 277 279 280 282 285 288 291 293 294 296 297 299 300 300 300 300 300 299 300 300 300 300 299
241 243 244 246 248 250 253 255 257 258 260 261 262 264 266 268 269 271 272 274 277 279 281 283 285 288 290 291 293 295 296 297 298 298 299 299 299 299 299 299 299 299 298
244 244 245 247 249 251 254 256 258 260 260 261 263 264 266 268 270 271 272 274 277 279 281 282 285 287 288 290 292 293 295 296 297 297 297 297 297 298 298 297 297 297 296
244 245 246 248 250 252 254 256 258 260 260 261 262 264 267 269 270 271 272 273 275 278 280 281 283 285 287 290 292 292 293 295 295 295 295 295 296 296 296 296 296 295 295
245 246 249 250 251 253 255 257 258 259 259 261 263 264 266 268 271 272 272 273 275 278 279 281 283 285 287 289 291 292 292 293 293 293 294 294 295 295 295 294 294 293 293
247 247 249 251 253 254 255 256 258 259 261 262 264 266 267 268 270 271 272 274 276 277 279 281 283 285 287 288 289 290 291 291 292 292 293 293 294 294 293 293 292 292 291
247 249 251 252 253 253 254 256 258 260 262 263 265 265 267 268 269 270 271 274 275 276 278 280 283 285 286 287 288 289 290 291 291 291 292 292 293 293 293 292 292 291 290
250 252 253 254 255 255 255 256 258 260 260 262 264 265 266 268 269 269 270 273 275 277 279 281 284 285 286 287 288 289 289 290 290 290 291 292 292 292 292 291 290 289 288
253 253 252 254 254 255 256 257 258 258 259 261 263 266 266 268 269 269 271 273 276 279 281 282 283 285 286 286 287 288 289 290 290 290 291 291 291 291 291 290 290 289 287
255 255 253 254 255 255 258 260 260 260 261 262 263 265 266 267 267 269 271 274 277 279 280 282 283 283 284 285 286 288 288 289 289 290 290 290 290 290 290 290 288 287 286
257 257 257 259 257 258 261 263 263 263 263 263 263 264 266 268 269 271 273 275 277 279 280 281 282 282 283 284 286 287 287 288 288 288 289 289 289 289 289 287 286 285 285
259 261 261 262 261 261 263 265 265 265 266 266 266 267 268 269 271 273 273 275 278 279 280 281 281 282 283 284 285 285 286 287 287 287 288 288 288 288 288 286 286 285 284
262 262 262 262 262 263 264 264 265 265 265 266 267 269 270 270 272 273 274 276 277 278 279 281 281 282 283 284 285 285 286 286 286 286 287 287 287 287 286 285 285 285 283
262 262 261 262 261 261 262 264 263 263 264 267 268 269 270 270 271 273 275 276 276 278 279 280 281 282 283 284 284 285 285 286 286 286 286 286 286 286 285 284 284 283 283
264 263 263 262 262 262 262 262 262 263 265 266 266 266 268 270 271 273 274 275 277 278 278 279 280 282 283 284 284 284 285 285 285 285 286 286 285 285 285 284 283 282 281
263 263 263 263 262 261 260 260 260 262 264 265 266 267 268 269 270 272 273 275 276 276 277 279 281 282 283 283 284 284 284 284 284 284 285 285 284 284 284 283 282 281 280
265 264 263 262 261 259 259 259 260 260 262 263 265 267 268 269 270 272 273 274 275 276 277 278 280 281 281 282 282 283 283 284 283 283 283 283 283 283 283 281 281 280 280
266 264 263 261 260 259 259 259 260 260 262 262 264 266 267 268 269 271 272 273 274 275 276 277 279 280 281 282 282 282 282 282 282 282 282 283 283 283 282 281 280 280 280
265 263 261 260 259 257 257 258 259 260 262 262 263 264 266 267 267 269 271 273 273 274 275 277 278 278 279 280 281 281 281 281 281 281 282 282 282 282 281 280 279 279 280
Height
5841 5843 5845 5847 5848 5850 5851 5852 5853 5854 5855 5855 5856 5856 5856 5857 5856 5856 5856 5855 5854 5853 5852 5851 5849 5848 5846 5844 5842 5840 5838 5835 5832 5829 5827 5824 5821 5817 5814 5811 5808 5804 5801
5836 5838 5840 5842 5844 5845 5846 5847 5848 5849 5850 5851 5851 5852 5852 5852 5852 5851 5851 5850 5849 5848 5847 5846 5844 5843 5841 5839 5837 5835 5832 5830 5827 5824 5821 5818 5815 5812 5808 5805 5802 5799 5795
5830 5832 5835 5837 5838 5840 5841 5842 5843 5844 5845 5846 5846 5846 5846 5846 5846 5846 5845 5844 5844 5843 5842 5841 5839 5837 5836 5834 5831 5829 5827 5824 5821 5818 5815 5812 5809 5806 5802 5799 5795 5792 5788
5824 5826 5829 5831 5833 5834 5836 5837 5838 5839 5840 5840 5840 5841 5841 5841 5840 5840 5839 5839 5838 5837 5836 5835 5833 5831 5830 5828 5825 5823 5820 5818 5815 5812 5809 5805 5802 5799 5795 5792 5788 5784 5781
5817 5820 5822 5824 5826 5828 5830 5831 5832 5833 5833 5834 5834 5834 5834 5834 5834 5834 5833 5832 5831 5830 5829 5828 5827 5825 5823 5821 5819 5816 5813 5811 5808 5805 5802 5798 5795 5792 5788 5784 5781 5777 5773
5810 5813 5815 5818 5819 5821 5823 5824 5825 5826 5827 5827 5827 5827 5827 5827 5827 5827 5826 5825 5824 5823 5822 5821 5820 5818 5816 5814 5812 5809 5806 5804 5801 5797 5794 5791 5787 5784 5780 5776 5773 5769 5765
5802 5805 5808 5810 5812 5814 5816 5817 5818 5819 5819 5820 5820 5820 5820 5820 5820 5819 5819 5818 5817 5816 5815 5813 5812 5810 5808 5806 5804 5801 5799 5796 5793 5789 5786 5783 5779 5776 5772 5768 5764 5760 5756
5794 5797 5800 5802 5804 5806 5808 5809 5810 5811 5811 5812 5812 5812 5813 5813 5812 5812 5811 5810 5809 5808 5807 5806 5804 5802 5800 5798 5796 5793 5791 5788 5785 5781 5778 5774 5770 5767 5763 5759 5755 5751 5747
5786 5789 5792 5794 5796 5798 5799 5801 5802 5803 5803 5804 5804 5804 5805 5805 5805 5804 5803 5802 5801 5800 5799 5798 5796 5794 5792 5790 5787 5785 5782 5779 5776 5773 5769 5765 5761 5757 5753 5749 5746 5742 5738
5778 5780 5783 5785 5787 5789 5790 5792 5792 5793 5794 5794 5795 5795 5796 5796 5796 5796 5796 5794 5793 5791 5790 5788 5787 5785 5783 5781 5778 5776 5773 5770 5766 5763 5759 5755 5752 5747 5744 5740 5736 5732 5729
5768 5771 5773 5775 5777 5779 5781 5782 5783 5784 5785 5785 5786 5786 5786 5787 5787 5787 5787 5786 5784 5782 5781 5779 5777 5776 5773 5771 5769 5766 5763 5760 5756 5753 5749 5746 5742 5738 5734 5730 5726 5723 5720
5758 5761 5763 5765 5767 5769 5771 5772 5773 5774 5775 5775 5776 5777 5777 5778 5777 5777 5777 5776 5775 5773 5771 5770 5768 5766 5764 5761 5759 5756 5753 5749 5746 5742 5739 5735 5731 5727 5724 5720 5716 5713 5710
5748 5750 5752 5754 5756 5758 5760 5761 5762 5764 5764 5766 5767 5767 5767 5768 5768 5767 5767 5766 5765 5764 5762 5760 5758 5755 5753 5750 5748 5745 5742 5738 5735 5732 5728 5724 5721 5717 5713 5710 5706 5703 5701
5737 5739 5741 5743 5745 5746 5748 5750 5752 5753 5754 5755 5756 5757 5757 5757 5757 5757 5756 5756 5755 5754 5753 5751 5747 5745 5742 5739 5737 5733 5730 5727 5724 5721 5717 5713 5710 5706 5703 5700 5697 5694 5691
5725 5727 5729 5731 5733 5735 5737 5739 5740 5742 5743 5744 5745 5746 5746 5746 5746 5746 5746 5745 5745 5744 5743 5740 5737 5734 5731 5728 5725 5722 5719 5716 5713 5709 5706 5702 5699 5696 5693 5689 5687 5684 5681
5713 5715 5717 5719 5721 5723 5725 5727 5728 5730 5731 5732 5733 5734 5735 5735 5735 5735 5735 5734 5733 5732 5731 5729 5726 5723 5720 5717 5713 5710 5707 5705 5701 5698 5695 5691 5688 5685 5682 5679 5677 5674 5672
5701 5703 5705 5706 5709 5711 5713 5714 5716 5718 5719 5721 5722 5723 5723 5724 5724 5723 5723 5722 5721 5720 5718 5717 5714 5711 5708 5705 5702 5699 5696 5693 5690 5687 5684 5681 5678 5675 5672 5669 5666 5664 5662
5689 5691 5692 5694 5696 5698 5700 5702 5704 5706 5707 5709 5710 5711 5711 5711 5711 5711 5711 5710 5709 5707 5706 5704 5702 5699 5696 5694 5691 5688 5685 5682 5679 5676 5672 5670 5667 5664 5661 5659 5656 5654 5652
5676 5678 5680 5682 5683 5686 5688 5690 5692 5693 5695 5696 5697 5698 5699 5699 5699 5699 5699 5698 5697 5695 5693 5692 5690 5687 5684 5681 5679 5676 5673 5670 5667 5664 5662 5659 5656 5653 5651 5648 5646 5644 5642
5664 5665 5667 5668 5670 5673 5675 5677 5679 5681 5683 5684 5685 5686 5687 5687 5687 5687 5686 5685 5684 5683 5681 5679 5677 5675 5672 5669 5667 5664 5661 5658 5656 5653 5651 5648 5645 5643 5641 5638 5636 5634 5633
5651 5652 5653 5655 5657 5660 5662 5664 5666 5668 5670 5672 5672 5673 5674 5674 5674 5674 5674 5673 5672 5670 5669 5667 5665 5663 5660 5658 5655 5652 5650 5647 5645 5642 5640 5638 5635 5633 5631 5629 5627 5625 5623
5637 5638 5640 5642 5644 5646 5649 5651 5653 5655 5657 5658 5659 5660 5661 5661 5662 5661 5661 5660 5659 5658 5656 5654 5652 5651 5649 5646 5643 5641 5639 5636 5634 5632 5630 5627 5625 5623 5621 5619 5617 5616 5614
5624 5625 5626 5628 5631 5633 5636 5638 5640 5642 5644 5645 5646 5647 5648 5648 5649 5649 5648 5647 5646 5645 5644 5642 5641 5639 5637 5634 5632 5630 5628 5625 5623 5621 5619 5617 5615 5613 5611 5609 5608 5606 5605
5611 5612 5613 5615 5618 5620 5623 5624 5627 5628 5630 5632 5633 5634 5635 5635 5636 5636 5635 5635 5634 5633 5632 5630 5629 5627 5625 5623 5621 5619 5617 5615 5613 5611 5609 5607 5605 5603 5601 5600 5598 5597 5596
5598 5599 5601 5603 5605 5607 5610 5612 5614 5616 5617 5619 5620 5622 5622 5623 5623 5623 5623 5623 5622 5621 5620 5618 5617 5615 5613 5612 5610 5608 5606 5604 5603 5601 5599 5597 5595 5593 5592 5590 5589 5587 5586
5586 5587 5589 5591 5593 5595 5597 5600 5601 5604 5605 5607 5608 5609 5610 5611 5611 5611 5611 5610 5610 5609 5608 5607 5605 5604 5602 5601 5599 5597 5595 5594 5592 5591 5589 5587 5585 5583 5582 5581 5579 5578 5577